Flag for Canada Weather past 2 weeks in Saguenay, Quebec, Canada

Now
43 °F

Quite cool.


Feels Like: 43 °F
Forecast: 38 / 60 °F
Wind: 2 mph from Northeast

Location: Jonquiere Airport

Current Time: Oct 1, 2014 at 6:56:28 AM

Latest Report: Oct 1, 2014 at 6:00 AM


Visibility: N/A

Pressure: 30.26 "Hg

Humidity: 92%

Dew point: 41 °F

Location of SaguenayLocation

Historic Weather in Saguenay — Graph

°F

Saguenay temperature yesterday

Maximum temperature yesterday: 48 °F (at 3:00 PM)
Minimum temperature yesterday: 37 °F (at 12:00 AM)
Average temperature yesterday: 43 °F

Past Weeks' High & Low Weather Summary

 TemperatureHumidityPressure
High79 °F (Sep 28, 2:00 PM)100% (Sep 30, 6:00 AM)30.59 "Hg (Sep 30, 6:00 AM)
Low29 °F (Sep 19, 5:00 AM)33% (Sep 19, 4:00 PM)29.44 "Hg (Sep 22, 8:00 AM)
Average52 °F77%30.07 "Hg
* Reported Sep 16 5:00 AM — Oct 1 5:00 AM, Saguenay, Weather by CustomWeather, © 2014

Note: Actual official high and low records may vary slightly from our data, if they occured in-between our weather recording intervals... More about our weather records

Advertising

Saguenay weather history for previous 24 hours

 ConditionsComfort  
Time TempWeatherWind HumidityBarometerVisibility
5:00 AM
Oct 1
43 °FQuite cool.2 mph91%30.25 "HgN/A
4:00 AM44 °FQuite cool.3 mph88%30.24 "HgN/A
3:00 AM45 °FQuite cool.5 mph84%30.24 "HgN/A
2:00 AM45 °FQuite cool.3 mph85%30.23 "HgN/A
1:00 AM44 °FQuite cool.5 mph89%30.22 "HgN/A
12:00 AM44 °FQuite cool.3 mph92%30.21 "HgN/A
11:00 PM
Sep 30
46 °FCool.3 mph84%30.21 "HgN/A
10:00 PM46 °FCool.1 mph82%30.21 "HgN/A
9:00 PM46 °FCool.6 mph84%30.22 "HgN/A
8:00 PM47 °FCool.6 mph84%30.20 "HgN/A
7:00 PM47 °FCool.9 mph84%30.18 "HgN/A
6:00 PM47 °FCool.3 mph84%30.17 "HgN/A
5:00 PM46 °FCool.1 mph87%30.16 "HgN/A
4:00 PM46 °FCool.1 mph88%30.15 "HgN/A
3:00 PM48 °FCool.2 mph81%30.15 "HgN/A
2:00 PM47 °FCool.1 mph83%30.14 "HgN/A
1:00 PM46 °FCool.2 mph82%30.16 "HgN/A
11:00 AM43 °FQuite cool.3 mph91%30.17 "HgN/A
10:00 AM41 °FQuite cool.3 mph95%30.16 "HgN/A
9:00 AM41 °FQuite cool.3 mph95%30.16 "HgN/A
8:00 AM40 °FQuite cool.5 mph95%30.15 "HgN/A
7:00 AM40 °FChilly.5 mph95%30.14 "HgN/A
6:00 AM38 °FChilly.5 mph100%30.14 "HgN/A
Weather by CustomWeather, © 2014

See weather overviewHow to use our weather pages